Location: Eitze
(52.9840°N, 9.6894°E)
Time: 10:13:18
(UTC+00:00)

Spot 1 - Pass Details

Date: 19 May 2025
Orbit: 569 x 752 km, 98.7° (Epoch: 23 June)

Event Time Altitude Azimuth Distance (km) Brightness Sun altitude
Rises 23:17:42 0° 14° (NNE) 2,851 9.0 -17.0°
Reaches altitude 10° 23:19:50 10° 12° (NNE) 1,965 7.9 -17.0°
Maximum altitude 23:24:05 70° 289° (WNW) 673 4.2 -17.0°
Enters shadow 23:26:19 28° 212° (SSW) 1,195 5.0 -17.0°
